Terminal Aerodrome Forecast
Issued by NWS Pittsburgh, PA

Current Version | Previous Version | Text Only | Print | Product List | Glossary Off
Versions: 1 2 3 4 5 6 7 8 9 10 11 12 13 14 15 16 17 18 19 20 21 22 23 24 25 26 27 28 29 30

000
FTUS41 KPBZ 301100
TAFPIT
TAF
KPIT 301120Z 3012/3118 VRB03KT P6SM BKN060
     FM301700 25012KT P6SM VCSH BKN035
     FM310300 23004KT P6SM SCT050
     FM310900 23006KT P6SM BKN035=

USA.gov is the U.S. government's official web portal to all federal, state and local government web resources and services.